STARLINK-32632, 62262

Orbit data source: Space-Track

STARLINK-32632, 62262 is a payload satellite owned by SpaceX/Seattle (US) in LEO that was launched on Thu, 05 Dec 2024 UTC via an FALCON 9 launch vehicle from the Air Force Western Test Range (AFWTR). Payload-class satellites include a variety of spacecraft equipped with specific instruments for various scientific and technological missions. These include communications satellites like Starlink; space stations such as the ISS; scientific satellites like the Hubble; Earth observation satellites from companies like Planet Labs, Umbra, and HawkEye 360; GPS; miniature CubeSats for education and research; and military/defense satellites.

Loading next visibility...
Identifier
62262, 2024-231V
Orbit
LEO
Last TLE update
13 hours ago
Origin
Manufacturer
SpaceX/Seattle
Mission
Operational Commercial Communications
Bus & Motor
STARLINK V2M, Unknown motor
Mass
730 kg wet, ~700 kg dry
Launch date (UTC)
2024-12-05 (7 months ago)
Launch vehicle
FALCON 9
Launch site
Air Force Western Test Range (AFWTR)
Object type
Payload
Rocket body
Debris
Shape & HBR
Box + 2 Pan, 29 m
Radar Cross Section
33.884 m², Large (>1 m²)

Expand to show TLE details & history

TLE from 13 hours ago
0 STARLINK-32632
1 62262U 24231V   25191.48085451  .00006942  00000-0  24629-3 0  9990
2 62262  53.1585 264.7734 0000756  74.6360 285.4724 15.30196556 34644
Epoch: 2025-07-10T11:32Z
TLE epoch observation values (Epoch: 2025-07-10T11:32:25.829Z)
Latitude
-0.00005°
Longitude
163.01922°
Altitude
475.987 km
Speed
7.629 km/s
True Right ascension
17h 39m 05s
True Declination
0° 00' 00"
Sunlit
Object was in full shadow at epoch
Visualization orbit readout
Latitude
52.79567°
Longitude
-120.52906°
Altitude
481.146 km
Speed
7.632 km/s
Apparent Right ascension
23h 48m 48s
Apparent Declination
8° 53' 06"
Sunlit
Object is in daylight
Visualization observer readout
Local Sidereal Time
12:42:49
Azimuth
17.429° NNE
Elevation
-39.622°
Doppler factor
1
Orbital elements
Apogee altitude
476 km
Perigee altitude
474.964 km
Semi-major axis
6,853.619 km
Eccentricity
0.00008
Inclination
53.1585°
RAAN
264.7734°
Arg. of periapsis
74.636°
True anomaly
Unknown
Mean anomaly
285.4724°
Eccentric anomaly
Unknown
Mean motion
3.82528 °/min
Orbital period
94.11 mins
BSTAR
0.00024629
Loading maneuver chart data...
Loading SW <> Apogee altitude chart data...
Loading historical data...
Loading historical data...
Loading historical data...
Loading historical data...
Loading historical data...
Loading historical data...
Loading historical data...

STARLINK-32632 Visibility forecast

Observer location: undefined°, undefined°

Span
Click to sort rows by Start time (UTC) header in descending order
Start Az.
Max El. time (UTC)
Max El. Az.
Max El.
End time (UTC)
End Az.
4 mins2025-07-11 06:30:35.621Z166.454° S2025-07-11 06:32:35.621Z127.166° SE18.264°2025-07-11 06:34:35.621Z89.051° E
5 mins2025-07-11 08:08:35.621Z264.431° W2025-07-11 08:10:35.621Z349.411° N35.737°2025-07-11 08:13:35.621Z40.412° NE
4 mins2025-07-11 13:05:35.621Z352.485° N2025-07-11 13:06:35.621Z14.682° NNE20.956°2025-07-11 13:09:35.621Z76.423° E
6 mins2025-07-11 14:42:35.621Z298.589° NW2025-07-11 14:45:35.621Z192.557° SSW38.415°2025-07-11 14:48:35.621Z145.629° SSE
|